#datetime,building,power
2022-06-07T00:00:00,mcc,53.69
2022-06-07T00:01:00,mcc,53.41
2022-06-07T00:02:00,mcc,54.18
2022-06-07T00:03:00,mcc,55.33
2022-06-07T00:04:00,mcc,64.45
2022-06-07T00:05:00,mcc,54.96
2022-06-07T00:06:00,mcc,56.06
2022-06-07T00:07:00,mcc,56.18
2022-06-07T00:08:00,mcc,57.51
2022-06-07T00:09:00,mcc,58.04
2022-06-07T00:10:00,mcc,55.34
2022-06-07T00:11:00,mcc,54.60
2022-06-07T00:12:00,mcc,53.93
2022-06-07T00:13:00,mcc,53.54
2022-06-07T00:14:00,mcc,53.20
2022-06-07T00:15:00,mcc,53.67
2022-06-07T00:16:00,mcc,53.78
2022-06-07T00:17:00,mcc,54.26
2022-06-07T00:18:00,mcc,56.24
2022-06-07T00:19:00,mcc,56.90
2022-06-07T00:20:00,mcc,55.02
2022-06-07T00:21:00,mcc,55.34
2022-06-07T00:22:00,mcc,63.25
2022-06-07T00:23:00,mcc,55.29
2022-06-07T00:24:00,mcc,57.49
2022-06-07T00:25:00,mcc,57.38
2022-06-07T00:26:00,mcc,56.58
2022-06-07T00:27:00,mcc,56.75
2022-06-07T00:28:00,mcc,56.48
2022-06-07T00:29:00,mcc,56.92
2022-06-07T00:30:00,mcc,57.71
2022-06-07T00:31:00,mcc,56.20
2022-06-07T00:32:00,mcc,55.99
2022-06-07T00:33:00,mcc,53.98
2022-06-07T00:34:00,mcc,53.90
2022-06-07T00:35:00,mcc,56.33
2022-06-07T00:36:00,mcc,56.85
2022-06-07T00:37:00,mcc,55.98
2022-06-07T00:38:00,mcc,55.45
2022-06-07T00:39:00,mcc,55.41
2022-06-07T00:40:00,mcc,54.80
2022-06-07T00:41:00,mcc,61.78
2022-06-07T00:42:00,mcc,53.00
2022-06-07T00:43:00,mcc,53.28
2022-06-07T00:44:00,mcc,54.32
2022-06-07T00:45:00,mcc,55.81
2022-06-07T00:46:00,mcc,54.41
2022-06-07T00:47:00,mcc,53.64
2022-06-07T00:48:00,mcc,54.11
2022-06-07T00:49:00,mcc,53.92
2022-06-07T00:50:00,mcc,54.80
2022-06-07T00:51:00,mcc,50.09
2022-06-07T00:52:00,mcc,50.31
2022-06-07T00:53:00,mcc,51.10
2022-06-07T00:54:00,mcc,50.74
2022-06-07T00:55:00,mcc,51.39
2022-06-07T00:56:00,mcc,49.34
2022-06-07T00:57:00,mcc,50.12
2022-06-07T00:58:00,mcc,50.85
2022-06-07T00:59:00,mcc,49.87
2022-06-07T01:00:00,mcc,49.85
2022-06-07T01:01:00,mcc,47.52
2022-06-07T01:02:00,mcc,45.14
2022-06-07T01:03:00,mcc,47.19
2022-06-07T01:04:00,mcc,47.40
2022-06-07T01:05:00,mcc,47.40
2022-06-07T01:06:00,mcc,49.69
2022-06-07T01:07:00,mcc,48.86
2022-06-07T01:08:00,mcc,47.69
2022-06-07T01:09:00,mcc,47.60
2022-06-07T01:10:00,mcc,48.35
2022-06-07T01:11:00,mcc,45.76
2022-06-07T01:12:00,mcc,46.00
2022-06-07T01:13:00,mcc,46.44
2022-06-07T01:14:00,mcc,47.01
2022-06-07T01:15:00,mcc,45.67
2022-06-07T01:16:00,mcc,46.22
2022-06-07T01:17:00,mcc,46.74
2022-06-07T01:18:00,mcc,47.53
2022-06-07T01:19:00,mcc,49.53
2022-06-07T01:20:00,mcc,49.30
2022-06-07T01:21:00,mcc,51.94
2022-06-07T01:22:00,mcc,51.71
2022-06-07T01:23:00,mcc,51.48
2022-06-07T01:24:00,mcc,51.49
2022-06-07T01:25:00,mcc,49.35
2022-06-07T01:26:00,mcc,50.13
2022-06-07T01:27:00,mcc,49.29
2022-06-07T01:28:00,mcc,50.53
2022-06-07T01:29:00,mcc,48.55
2022-06-07T01:30:00,mcc,47.49
2022-06-07T01:31:00,mcc,47.08
2022-06-07T01:32:00,mcc,46.89
2022-06-07T01:33:00,mcc,46.33
2022-06-07T01:34:00,mcc,47.01
2022-06-07T01:35:00,mcc,47.57
2022-06-07T01:36:00,mcc,46.77
2022-06-07T01:37:00,mcc,46.06
2022-06-07T01:38:00,mcc,46.30
2022-06-07T01:39:00,mcc,56.56
2022-06-07T01:40:00,mcc,49.76
2022-06-07T01:41:00,mcc,49.26
2022-06-07T01:42:00,mcc,48.36
2022-06-07T01:43:00,mcc,47.21
2022-06-07T01:44:00,mcc,47.45
2022-06-07T01:45:00,mcc,47.45
2022-06-07T01:46:00,mcc,47.53
2022-06-07T01:47:00,mcc,47.32
2022-06-07T01:48:00,mcc,47.91
2022-06-07T01:49:00,mcc,46.99
2022-06-07T01:50:00,mcc,49.50
2022-06-07T01:51:00,mcc,49.22
2022-06-07T01:52:00,mcc,49.76
2022-06-07T01:53:00,mcc,51.26
2022-06-07T01:54:00,mcc,50.81
2022-06-07T01:55:00,mcc,50.15
2022-06-07T01:56:00,mcc,48.30
2022-06-07T01:57:00,mcc,48.54
2022-06-07T01:58:00,mcc,46.40
2022-06-07T01:59:00,mcc,46.35
2022-06-07T02:00:00,mcc,46.08
2022-06-07T02:01:00,mcc,46.38
2022-06-07T02:02:00,mcc,46.36
2022-06-07T02:03:00,mcc,46.71
2022-06-07T02:04:00,mcc,47.49
2022-06-07T02:05:00,mcc,48.80
2022-06-07T02:06:00,mcc,48.06
2022-06-07T02:07:00,mcc,48.14
2022-06-07T02:08:00,mcc,47.05
2022-06-07T02:09:00,mcc,48.98
2022-06-07T02:10:00,mcc,48.53
2022-06-07T02:11:00,mcc,48.23
2022-06-07T02:12:00,mcc,48.85
2022-06-07T02:13:00,mcc,47.82
2022-06-07T02:14:00,mcc,48.03
2022-06-07T02:15:00,mcc,50.76
2022-06-07T02:16:00,mcc,60.38
2022-06-07T02:17:00,mcc,54.38
2022-06-07T02:18:00,mcc,47.41
2022-06-07T02:19:00,mcc,47.47
2022-06-07T02:20:00,mcc,47.57
2022-06-07T02:21:00,mcc,48.42
2022-06-07T02:22:00,mcc,48.09
2022-06-07T02:23:00,mcc,48.65
2022-06-07T02:24:00,mcc,49.37
2022-06-07T02:25:00,mcc,49.42
2022-06-07T02:26:00,mcc,49.55
2022-06-07T02:27:00,mcc,48.46
2022-06-07T02:28:00,mcc,48.08
2022-06-07T02:29:00,mcc,47.13
2022-06-07T02:30:00,mcc,47.18
2022-06-07T02:31:00,mcc,47.90
2022-06-07T02:32:00,mcc,48.19
2022-06-07T02:33:00,mcc,49.62
2022-06-07T02:34:00,mcc,49.50
2022-06-07T02:35:00,mcc,48.93
2022-06-07T02:36:00,mcc,57.70
2022-06-07T02:37:00,mcc,48.62
2022-06-07T02:38:00,mcc,50.05
2022-06-07T02:39:00,mcc,49.18
2022-06-07T02:40:00,mcc,48.75
2022-06-07T02:41:00,mcc,49.91
2022-06-07T02:42:00,mcc,47.95
2022-06-07T02:43:00,mcc,46.51
2022-06-07T02:44:00,mcc,46.34
2022-06-07T02:45:00,mcc,51.29
2022-06-07T02:46:00,mcc,50.17
2022-06-07T02:47:00,mcc,51.59
2022-06-07T02:48:00,mcc,51.03
2022-06-07T02:49:00,mcc,51.51
2022-06-07T02:50:00,mcc,50.53
2022-06-07T02:51:00,mcc,50.84
2022-06-07T02:52:00,mcc,51.93
2022-06-07T02:53:00,mcc,50.75
2022-06-07T02:54:00,mcc,50.71
2022-06-07T02:55:00,mcc,54.49
2022-06-07T02:56:00,mcc,46.23
2022-06-07T02:57:00,mcc,47.82
2022-06-07T02:58:00,mcc,48.10
2022-06-07T02:59:00,mcc,48.51
2022-06-07T03:00:00,mcc,49.77
2022-06-07T03:01:00,mcc,50.35
2022-06-07T03:02:00,mcc,48.68
2022-06-07T03:03:00,mcc,48.76
2022-06-07T03:04:00,mcc,50.01
2022-06-07T03:05:00,mcc,59.17
2022-06-07T03:06:00,mcc,48.14
2022-06-07T03:07:00,mcc,47.22
2022-06-07T03:08:00,mcc,47.49
2022-06-07T03:09:00,mcc,47.01
2022-06-07T03:10:00,mcc,47.37
2022-06-07T03:11:00,mcc,54.56
2022-06-07T03:12:00,mcc,54.24
2022-06-07T03:13:00,mcc,55.19
2022-06-07T03:14:00,mcc,55.66
2022-06-07T03:15:00,mcc,57.31
2022-06-07T03:16:00,mcc,51.79
2022-06-07T03:17:00,mcc,50.86
2022-06-07T03:18:00,mcc,49.36
2022-06-07T03:19:00,mcc,48.11
2022-06-07T03:20:00,mcc,51.77
2022-06-07T03:21:00,mcc,52.58
2022-06-07T03:22:00,mcc,50.60
2022-06-07T03:23:00,mcc,49.45
2022-06-07T03:24:00,mcc,49.36
2022-06-07T03:25:00,mcc,48.91
2022-06-07T03:26:00,mcc,49.11
2022-06-07T03:27:00,mcc,49.31
2022-06-07T03:28:00,mcc,49.36
2022-06-07T03:29:00,mcc,48.69
2022-06-07T03:30:00,mcc,48.90
2022-06-07T03:31:00,mcc,48.26
2022-06-07T03:32:00,mcc,49.41
2022-06-07T03:33:00,mcc,46.91
2022-06-07T03:34:00,mcc,48.61
2022-06-07T03:35:00,mcc,46.98
2022-06-07T03:36:00,mcc,47.25
2022-06-07T03:37:00,mcc,47.27
2022-06-07T03:38:00,mcc,48.43
2022-06-07T03:39:00,mcc,59.65
2022-06-07T03:40:00,mcc,59.25
2022-06-07T03:41:00,mcc,47.94
2022-06-07T03:42:00,mcc,47.12
2022-06-07T03:43:00,mcc,47.02
2022-06-07T03:44:00,mcc,47.54
2022-06-07T03:45:00,mcc,48.94
2022-06-07T03:46:00,mcc,50.43
2022-06-07T03:47:00,mcc,49.21
2022-06-07T03:48:00,mcc,49.56
2022-06-07T03:49:00,mcc,49.83
2022-06-07T03:50:00,mcc,49.17
2022-06-07T03:51:00,mcc,47.32
2022-06-07T03:52:00,mcc,45.76
2022-06-07T03:53:00,mcc,46.88
2022-06-07T03:54:00,mcc,55.91
2022-06-07T03:55:00,mcc,57.17
2022-06-07T03:56:00,mcc,57.01
2022-06-07T03:57:00,mcc,57.10
2022-06-07T03:58:00,mcc,46.30
2022-06-07T03:59:00,mcc,48.37
2022-06-07T04:00:00,mcc,48.08
2022-06-07T04:01:00,mcc,48.18
2022-06-07T04:02:00,mcc,50.76
2022-06-07T04:03:00,mcc,50.92
2022-06-07T04:04:00,mcc,50.86
2022-06-07T04:05:00,mcc,49.97
2022-06-07T04:06:00,mcc,49.87
2022-06-07T04:07:00,mcc,47.93
2022-06-07T04:08:00,mcc,49.01
2022-06-07T04:09:00,mcc,47.34
2022-06-07T04:10:00,mcc,47.69
2022-06-07T04:11:00,mcc,45.76
2022-06-07T04:12:00,mcc,46.96
2022-06-07T04:13:00,mcc,47.09
2022-06-07T04:14:00,mcc,46.90
2022-06-07T04:15:00,mcc,48.66
2022-06-07T04:16:00,mcc,49.23
2022-06-07T04:17:00,mcc,51.80
2022-06-07T04:18:00,mcc,51.10
2022-06-07T04:19:00,mcc,50.39
2022-06-07T04:20:00,mcc,50.33
2022-06-07T04:21:00,mcc,50.22
2022-06-07T04:22:00,mcc,49.29
2022-06-07T04:23:00,mcc,47.13
2022-06-07T04:24:00,mcc,45.36
2022-06-07T04:25:00,mcc,46.02
2022-06-07T04:26:00,mcc,45.21
2022-06-07T04:27:00,mcc,45.43
2022-06-07T04:28:00,mcc,45.48
2022-06-07T04:29:00,mcc,54.12
2022-06-07T04:30:00,mcc,50.21
2022-06-07T04:31:00,mcc,49.59
2022-06-07T04:32:00,mcc,49.40
2022-06-07T04:33:00,mcc,50.37
2022-06-07T04:34:00,mcc,49.86
2022-06-07T04:35:00,mcc,49.02
2022-06-07T04:36:00,mcc,48.47
2022-06-07T04:37:00,mcc,48.06
2022-06-07T04:38:00,mcc,47.85
2022-06-07T04:39:00,mcc,49.85
2022-06-07T04:40:00,mcc,48.36
2022-06-07T04:41:00,mcc,50.73
2022-06-07T04:42:00,mcc,53.16
2022-06-07T04:43:00,mcc,54.02
2022-06-07T04:44:00,mcc,56.63
2022-06-07T04:45:00,mcc,53.89
2022-06-07T04:46:00,mcc,53.98
2022-06-07T04:47:00,mcc,54.57
2022-06-07T04:48:00,mcc,61.67
2022-06-07T04:49:00,mcc,53.92
2022-06-07T04:50:00,mcc,51.81
2022-06-07T04:51:00,mcc,51.44
2022-06-07T04:52:00,mcc,62.68
2022-06-07T04:53:00,mcc,62.24
2022-06-07T04:54:00,mcc,49.16
2022-06-07T04:55:00,mcc,48.92
2022-06-07T04:56:00,mcc,48.07
2022-06-07T04:57:00,mcc,48.11
2022-06-07T04:58:00,mcc,49.40
2022-06-07T04:59:00,mcc,50.56
2022-06-07T05:00:00,mcc,50.71
2022-06-07T05:01:00,mcc,47.96
2022-06-07T05:02:00,mcc,48.29
2022-06-07T05:03:00,mcc,48.75
2022-06-07T05:04:00,mcc,48.71
2022-06-07T05:05:00,mcc,49.94
2022-06-07T05:06:00,mcc,49.82
2022-06-07T05:07:00,mcc,56.63
2022-06-07T05:08:00,mcc,48.07
2022-06-07T05:09:00,mcc,47.40
2022-06-07T05:10:00,mcc,50.66
2022-06-07T05:11:00,mcc,49.03
2022-06-07T05:12:00,mcc,49.02
2022-06-07T05:13:00,mcc,50.11
2022-06-07T05:14:00,mcc,50.60
2022-06-07T05:15:00,mcc,51.12
2022-06-07T05:16:00,mcc,50.19
2022-06-07T05:17:00,mcc,51.75
2022-06-07T05:18:00,mcc,50.63
2022-06-07T05:19:00,mcc,51.16
2022-06-07T05:20:00,mcc,51.14
2022-06-07T05:21:00,mcc,51.70
2022-06-07T05:22:00,mcc,49.60
2022-06-07T05:23:00,mcc,48.73
2022-06-07T05:24:00,mcc,47.22
2022-06-07T05:25:00,mcc,46.89
2022-06-07T05:26:00,mcc,55.19
2022-06-07T05:27:00,mcc,47.18
2022-06-07T05:28:00,mcc,46.77
2022-06-07T05:29:00,mcc,45.59
2022-06-07T05:30:00,mcc,45.69
2022-06-07T05:31:00,mcc,47.03
2022-06-07T05:32:00,mcc,46.88
2022-06-07T05:33:00,mcc,48.62
2022-06-07T05:34:00,mcc,50.16
2022-06-07T05:35:00,mcc,52.68
2022-06-07T05:36:00,mcc,52.62
2022-06-07T05:37:00,mcc,50.12
2022-06-07T05:38:00,mcc,48.84
2022-06-07T05:39:00,mcc,50.31
2022-06-07T05:40:00,mcc,50.81
2022-06-07T05:41:00,mcc,49.82
2022-06-07T05:42:00,mcc,49.76
2022-06-07T05:43:00,mcc,48.06
2022-06-07T05:44:00,mcc,48.62
2022-06-07T05:45:00,mcc,56.19
2022-06-07T05:46:00,mcc,49.53
2022-06-07T05:47:00,mcc,49.21
2022-06-07T05:48:00,mcc,48.72
2022-06-07T05:49:00,mcc,49.45
2022-06-07T05:50:00,mcc,47.25
2022-06-07T05:51:00,mcc,49.78
2022-06-07T05:52:00,mcc,49.65
2022-06-07T05:53:00,mcc,47.73
2022-06-07T05:54:00,mcc,48.93
2022-06-07T05:55:00,mcc,47.96
2022-06-07T05:56:00,mcc,48.40
2022-06-07T05:57:00,mcc,45.20
2022-06-07T05:58:00,mcc,47.16
2022-06-07T05:59:00,mcc,49.80
2022-06-07T06:00:00,mcc,54.43
2022-06-07T06:01:00,mcc,56.27
2022-06-07T06:02:00,mcc,56.30
2022-06-07T06:03:00,mcc,53.66
2022-06-07T06:04:00,mcc,71.13
2022-06-07T06:05:00,mcc,50.98
2022-06-07T06:06:00,mcc,50.88
2022-06-07T06:07:00,mcc,55.51
2022-06-07T06:08:00,mcc,56.84
2022-06-07T06:09:00,mcc,56.57
2022-06-07T06:10:00,mcc,56.70
2022-06-07T06:11:00,mcc,52.59
2022-06-07T06:12:00,mcc,53.26
2022-06-07T06:13:00,mcc,52.74
2022-06-07T06:14:00,mcc,50.98
2022-06-07T06:15:00,mcc,50.42
2022-06-07T06:16:00,mcc,50.45
2022-06-07T06:17:00,mcc,49.94
2022-06-07T06:18:00,mcc,49.85
2022-06-07T06:19:00,mcc,50.41
2022-06-07T06:20:00,mcc,51.82
2022-06-07T06:21:00,mcc,51.76
2022-06-07T06:22:00,mcc,52.61
2022-06-07T06:23:00,mcc,59.91
2022-06-07T06:24:00,mcc,53.12
2022-06-07T06:25:00,mcc,51.99
2022-06-07T06:26:00,mcc,50.77
2022-06-07T06:27:00,mcc,50.93
2022-06-07T06:28:00,mcc,50.70
2022-06-07T06:29:00,mcc,51.11
2022-06-07T06:30:00,mcc,50.70
2022-06-07T06:31:00,mcc,52.65
2022-06-07T06:32:00,mcc,50.50
2022-06-07T06:33:00,mcc,51.01
2022-06-07T06:34:00,mcc,51.19
2022-06-07T06:35:00,mcc,51.33
2022-06-07T06:36:00,mcc,52.36
2022-06-07T06:37:00,mcc,52.21
2022-06-07T06:38:00,mcc,55.84
2022-06-07T06:39:00,mcc,53.44
2022-06-07T06:40:00,mcc,54.48
2022-06-07T06:41:00,mcc,53.81
2022-06-07T06:42:00,mcc,53.90
2022-06-07T06:43:00,mcc,53.37
2022-06-07T06:44:00,mcc,53.47
2022-06-07T06:45:00,mcc,52.86
2022-06-07T06:46:00,mcc,51.63
2022-06-07T06:47:00,mcc,51.70
2022-06-07T06:48:00,mcc,51.57
2022-06-07T06:49:00,mcc,52.37
2022-06-07T06:50:00,mcc,54.73
2022-06-07T06:51:00,mcc,65.73
2022-06-07T06:52:00,mcc,64.11
2022-06-07T06:53:00,mcc,66.97
2022-06-07T06:54:00,mcc,68.22
2022-06-07T06:55:00,mcc,67.60
2022-06-07T06:56:00,mcc,67.91
2022-06-07T06:57:00,mcc,65.57
2022-06-07T06:58:00,mcc,65.66
2022-06-07T06:59:00,mcc,63.40
2022-06-07T07:00:00,mcc,63.24
2022-06-07T07:01:00,mcc,62.74
2022-06-07T07:02:00,mcc,64.22
2022-06-07T07:03:00,mcc,66.40
2022-06-07T07:04:00,mcc,63.98
2022-06-07T07:05:00,mcc,63.44
2022-06-07T07:06:00,mcc,56.44
2022-06-07T07:07:00,mcc,56.22
2022-06-07T07:08:00,mcc,56.20
2022-06-07T07:09:00,mcc,57.19
2022-06-07T07:10:00,mcc,57.27
2022-06-07T07:11:00,mcc,55.29
2022-06-07T07:12:00,mcc,56.60
2022-06-07T07:13:00,mcc,64.60
2022-06-07T07:14:00,mcc,55.41
2022-06-07T07:15:00,mcc,54.84
2022-06-07T07:16:00,mcc,57.36
2022-06-07T07:17:00,mcc,56.26
2022-06-07T07:18:00,mcc,63.69
2022-06-07T07:19:00,mcc,63.27
2022-06-07T07:20:00,mcc,55.42
2022-06-07T07:21:00,mcc,53.61
2022-06-07T07:22:00,mcc,53.02
2022-06-07T07:23:00,mcc,61.52
2022-06-07T07:24:00,mcc,60.90
2022-06-07T07:25:00,mcc,62.59
2022-06-07T07:26:00,mcc,57.13
2022-06-07T07:27:00,mcc,68.51
2022-06-07T07:28:00,mcc,56.82
2022-06-07T07:29:00,mcc,66.39
2022-06-07T07:30:00,mcc,60.50
2022-06-07T07:31:00,mcc,58.98
2022-06-07T07:32:00,mcc,60.02
2022-06-07T07:33:00,mcc,66.22
2022-06-07T07:34:00,mcc,57.23
2022-06-07T07:35:00,mcc,57.83
2022-06-07T07:36:00,mcc,57.49
2022-06-07T07:37:00,mcc,66.74
2022-06-07T07:38:00,mcc,55.13
2022-06-07T07:39:00,mcc,55.13
2022-06-07T07:40:00,mcc,55.50
2022-06-07T07:41:00,mcc,55.26
2022-06-07T07:42:00,mcc,59.04
2022-06-07T07:43:00,mcc,67.93
2022-06-07T07:44:00,mcc,58.39
2022-06-07T07:45:00,mcc,57.44
2022-06-07T07:46:00,mcc,57.34
2022-06-07T07:47:00,mcc,58.08
2022-06-07T07:48:00,mcc,59.18
2022-06-07T07:49:00,mcc,59.61
2022-06-07T07:50:00,mcc,57.32
2022-06-07T07:51:00,mcc,58.06
2022-06-07T07:52:00,mcc,68.50
2022-06-07T07:53:00,mcc,69.78
2022-06-07T07:54:00,mcc,69.17
2022-06-07T07:55:00,mcc,66.65
2022-06-07T07:56:00,mcc,66.43
2022-06-07T07:57:00,mcc,62.04
2022-06-07T07:58:00,mcc,63.48
2022-06-07T07:59:00,mcc,64.41
2022-06-07T08:00:00,mcc,66.32
2022-06-07T08:01:00,mcc,66.62
2022-06-07T08:02:00,mcc,69.08
2022-06-07T08:03:00,mcc,65.90
2022-06-07T08:04:00,mcc,66.12
2022-06-07T08:05:00,mcc,62.35
2022-06-07T08:06:00,mcc,61.70
2022-06-07T08:07:00,mcc,61.94
2022-06-07T08:08:00,mcc,60.60
2022-06-07T08:09:00,mcc,68.95
2022-06-07T08:10:00,mcc,60.54
2022-06-07T08:11:00,mcc,61.24
2022-06-07T08:12:00,mcc,60.44
2022-06-07T08:13:00,mcc,68.58
2022-06-07T08:14:00,mcc,71.54
2022-06-07T08:15:00,mcc,83.80
2022-06-07T08:16:00,mcc,68.29
2022-06-07T08:17:00,mcc,59.73
2022-06-07T08:18:00,mcc,59.29
2022-06-07T08:19:00,mcc,59.18
2022-06-07T08:20:00,mcc,65.50
2022-06-07T08:21:00,mcc,56.87
2022-06-07T08:22:00,mcc,58.33
2022-06-07T08:23:00,mcc,59.01
2022-06-07T08:24:00,mcc,60.70
2022-06-07T08:25:00,mcc,69.94
2022-06-07T08:26:00,mcc,64.50
2022-06-07T08:27:00,mcc,64.54
2022-06-07T08:28:00,mcc,64.14
2022-06-07T08:29:00,mcc,83.46
2022-06-07T08:30:00,mcc,64.64
2022-06-07T08:31:00,mcc,64.50
2022-06-07T08:32:00,mcc,65.39
2022-06-07T08:33:00,mcc,71.60
2022-06-07T08:34:00,mcc,62.78
2022-06-07T08:35:00,mcc,61.76
2022-06-07T08:36:00,mcc,70.04
2022-06-07T08:37:00,mcc,61.67
2022-06-07T08:38:00,mcc,60.52
2022-06-07T08:39:00,mcc,58.78
2022-06-07T08:40:00,mcc,57.86
2022-06-07T08:41:00,mcc,57.81
2022-06-07T08:42:00,mcc,64.99
2022-06-07T08:43:00,mcc,57.63
2022-06-07T08:44:00,mcc,58.21
2022-06-07T08:45:00,mcc,58.40
2022-06-07T08:46:00,mcc,66.00
2022-06-07T08:47:00,mcc,56.40
2022-06-07T08:48:00,mcc,66.31
2022-06-07T08:49:00,mcc,57.37
2022-06-07T08:50:00,mcc,56.18
2022-06-07T08:51:00,mcc,56.45
2022-06-07T08:52:00,mcc,67.08
2022-06-07T08:53:00,mcc,75.51
2022-06-07T08:54:00,mcc,61.65
2022-06-07T08:55:00,mcc,62.89
2022-06-07T08:56:00,mcc,71.85
2022-06-07T08:57:00,mcc,62.79
2022-06-07T08:58:00,mcc,62.49
2022-06-07T08:59:00,mcc,63.40
2022-06-07T09:00:00,mcc,66.74
2022-06-07T09:01:00,mcc,80.11
2022-06-07T09:02:00,mcc,69.67
2022-06-07T09:03:00,mcc,59.52
2022-06-07T09:04:00,mcc,58.46
2022-06-07T09:05:00,mcc,59.50
2022-06-07T09:06:00,mcc,59.21
2022-06-07T09:07:00,mcc,59.97
2022-06-07T09:08:00,mcc,60.09
2022-06-07T09:09:00,mcc,67.74
2022-06-07T09:10:00,mcc,59.39
2022-06-07T09:11:00,mcc,59.88
2022-06-07T09:12:00,mcc,59.15
2022-06-07T09:13:00,mcc,60.50
2022-06-07T09:14:00,mcc,60.39
2022-06-07T09:15:00,mcc,60.20
2022-06-07T09:16:00,mcc,59.17
2022-06-07T09:17:00,mcc,62.30
2022-06-07T09:18:00,mcc,60.12
2022-06-07T09:19:00,mcc,62.66
2022-06-07T09:20:00,mcc,70.38
2022-06-07T09:21:00,mcc,63.66
2022-06-07T09:22:00,mcc,64.61
2022-06-07T09:23:00,mcc,68.10
2022-06-07T09:24:00,mcc,66.92
2022-06-07T09:25:00,mcc,65.00
2022-06-07T09:26:00,mcc,64.94
2022-06-07T09:27:00,mcc,72.11
2022-06-07T09:28:00,mcc,63.48
2022-06-07T09:29:00,mcc,79.72
2022-06-07T09:30:00,mcc,65.20
2022-06-07T09:31:00,mcc,62.07
2022-06-07T09:32:00,mcc,60.71
2022-06-07T09:33:00,mcc,59.21
2022-06-07T09:34:00,mcc,66.68
2022-06-07T09:35:00,mcc,61.57
2022-06-07T09:36:00,mcc,62.52
2022-06-07T09:37:00,mcc,63.49
2022-06-07T09:38:00,mcc,61.50
2022-06-07T09:39:00,mcc,60.28
2022-06-07T09:40:00,mcc,59.08
2022-06-07T09:41:00,mcc,61.31
2022-06-07T09:42:00,mcc,60.00
2022-06-07T09:43:00,mcc,58.99
2022-06-07T09:44:00,mcc,60.26
2022-06-07T09:45:00,mcc,68.89
2022-06-07T09:46:00,mcc,63.29
2022-06-07T09:47:00,mcc,62.11
2022-06-07T09:48:00,mcc,88.53
2022-06-07T09:49:00,mcc,75.23
2022-06-07T09:50:00,mcc,74.49
2022-06-07T09:51:00,mcc,70.90
2022-06-07T09:52:00,mcc,62.74
2022-06-07T09:53:00,mcc,62.74
2022-06-07T09:54:00,mcc,62.27
2022-06-07T09:55:00,mcc,61.37
2022-06-07T09:56:00,mcc,62.17
2022-06-07T09:57:00,mcc,63.53
2022-06-07T09:58:00,mcc,68.07
2022-06-07T09:59:00,mcc,60.13
2022-06-07T10:00:00,mcc,60.53
2022-06-07T10:01:00,mcc,59.85
2022-06-07T10:02:00,mcc,61.77
2022-06-07T10:03:00,mcc,61.09
2022-06-07T10:04:00,mcc,70.81
2022-06-07T10:05:00,mcc,63.70
2022-06-07T10:06:00,mcc,70.02
2022-06-07T10:07:00,mcc,59.71
2022-06-07T10:08:00,mcc,60.78
2022-06-07T10:09:00,mcc,62.36
2022-06-07T10:10:00,mcc,62.34
2022-06-07T10:11:00,mcc,61.83
2022-06-07T10:12:00,mcc,60.57
2022-06-07T10:13:00,mcc,61.07
2022-06-07T10:14:00,mcc,62.29
2022-06-07T10:15:00,mcc,61.59
2022-06-07T10:16:00,mcc,62.61
2022-06-07T10:17:00,mcc,61.88
2022-06-07T10:18:00,mcc,64.35
2022-06-07T10:19:00,mcc,64.19
2022-06-07T10:20:00,mcc,63.89
2022-06-07T10:21:00,mcc,63.02
2022-06-07T10:22:00,mcc,63.54
2022-06-07T10:23:00,mcc,62.95
2022-06-07T10:24:00,mcc,70.68
2022-06-07T10:25:00,mcc,64.22
2022-06-07T10:26:00,mcc,61.65
2022-06-07T10:27:00,mcc,61.20
2022-06-07T10:28:00,mcc,61.03
2022-06-07T10:29:00,mcc,64.27
2022-06-07T10:30:00,mcc,71.09
2022-06-07T10:31:00,mcc,64.55
2022-06-07T10:32:00,mcc,65.08
2022-06-07T10:33:00,mcc,63.65
2022-06-07T10:34:00,mcc,63.08
2022-06-07T10:35:00,mcc,62.65
2022-06-07T10:36:00,mcc,64.05
2022-06-07T10:37:00,mcc,63.23
2022-06-07T10:38:00,mcc,63.69
2022-06-07T10:39:00,mcc,63.94
2022-06-07T10:40:00,mcc,64.04
2022-06-07T10:41:00,mcc,62.49
2022-06-07T10:42:00,mcc,61.59
2022-06-07T10:43:00,mcc,67.23
2022-06-07T10:44:00,mcc,60.64
2022-06-07T10:45:00,mcc,59.44
2022-06-07T10:46:00,mcc,61.35
2022-06-07T10:47:00,mcc,61.30
2022-06-07T10:48:00,mcc,60.72
2022-06-07T10:49:00,mcc,61.31
2022-06-07T10:50:00,mcc,62.12
2022-06-07T10:51:00,mcc,62.84
2022-06-07T10:52:00,mcc,61.93
2022-06-07T10:53:00,mcc,61.48
2022-06-07T10:54:00,mcc,58.69
2022-06-07T10:55:00,mcc,58.55
2022-06-07T10:56:00,mcc,59.58
2022-06-07T10:57:00,mcc,80.02
2022-06-07T10:58:00,mcc,70.84
2022-06-07T10:59:00,mcc,73.08
2022-06-07T11:00:00,mcc,65.58
2022-06-07T11:01:00,mcc,64.49
2022-06-07T11:02:00,mcc,65.27
2022-06-07T11:03:00,mcc,70.88
2022-06-07T11:04:00,mcc,87.41
2022-06-07T11:05:00,mcc,62.29
2022-06-07T11:06:00,mcc,62.56
2022-06-07T11:07:00,mcc,70.81
2022-06-07T11:08:00,mcc,65.68
2022-06-07T11:09:00,mcc,64.28
2022-06-07T11:10:00,mcc,63.59
2022-06-07T11:11:00,mcc,63.65
2022-06-07T11:12:00,mcc,64.64
2022-06-07T11:13:00,mcc,65.31
2022-06-07T11:14:00,mcc,64.27
2022-06-07T11:15:00,mcc,63.26
2022-06-07T11:16:00,mcc,62.70
2022-06-07T11:17:00,mcc,67.22
2022-06-07T11:18:00,mcc,67.65
2022-06-07T11:19:00,mcc,75.06
2022-06-07T11:20:00,mcc,67.63
2022-06-07T11:21:00,mcc,74.44
2022-06-07T11:22:00,mcc,69.05
2022-06-07T11:23:00,mcc,79.79
2022-06-07T11:24:00,mcc,66.30
2022-06-07T11:25:00,mcc,71.69
2022-06-07T11:26:00,mcc,62.56
2022-06-07T11:27:00,mcc,63.64
2022-06-07T11:28:00,mcc,63.55
2022-06-07T11:29:00,mcc,62.97
2022-06-07T11:30:00,mcc,62.66
2022-06-07T11:31:00,mcc,62.62
2022-06-07T11:32:00,mcc,69.88
2022-06-07T11:33:00,mcc,61.07
2022-06-07T11:34:00,mcc,60.48
2022-06-07T11:35:00,mcc,61.38
2022-06-07T11:36:00,mcc,59.88
2022-06-07T11:37:00,mcc,60.94
2022-06-07T11:38:00,mcc,60.75
2022-06-07T11:39:00,mcc,60.07
2022-06-07T11:40:00,mcc,68.31
2022-06-07T11:41:00,mcc,59.29
2022-06-07T11:42:00,mcc,59.77
2022-06-07T11:43:00,mcc,61.15
2022-06-07T11:44:00,mcc,61.07
2022-06-07T11:45:00,mcc,68.28
2022-06-07T11:46:00,mcc,60.19
2022-06-07T11:47:00,mcc,59.78
2022-06-07T11:48:00,mcc,58.85
2022-06-07T11:49:00,mcc,58.40
2022-06-07T11:50:00,mcc,59.02
2022-06-07T11:51:00,mcc,70.74
2022-06-07T11:52:00,mcc,61.70
2022-06-07T11:53:00,mcc,61.94
2022-06-07T11:54:00,mcc,61.34
2022-06-07T11:55:00,mcc,59.95
2022-06-07T11:56:00,mcc,62.94
2022-06-07T11:57:00,mcc,60.63
2022-06-07T11:58:00,mcc,65.94
2022-06-07T11:59:00,mcc,75.49
2022-06-07T12:00:00,mcc,68.52
2022-06-07T12:01:00,mcc,60.11
2022-06-07T12:02:00,mcc,61.04
2022-06-07T12:03:00,mcc,60.36
2022-06-07T12:04:00,mcc,62.91
2022-06-07T12:05:00,mcc,62.87
2022-06-07T12:06:00,mcc,62.95
2022-06-07T12:07:00,mcc,64.02
2022-06-07T12:08:00,mcc,64.13
2022-06-07T12:09:00,mcc,63.65
2022-06-07T12:10:00,mcc,60.39
2022-06-07T12:11:00,mcc,59.82
2022-06-07T12:12:00,mcc,60.38
2022-06-07T12:13:00,mcc,60.20
2022-06-07T12:14:00,mcc,60.18
2022-06-07T12:15:00,mcc,59.97
2022-06-07T12:16:00,mcc,62.37
2022-06-07T12:17:00,mcc,61.75
2022-06-07T12:18:00,mcc,60.93
2022-06-07T12:19:00,mcc,63.20
2022-06-07T12:20:00,mcc,79.92
2022-06-07T12:21:00,mcc,64.08
2022-06-07T12:22:00,mcc,61.42
2022-06-07T12:23:00,mcc,60.88
2022-06-07T12:24:00,mcc,61.18
2022-06-07T12:25:00,mcc,61.31
2022-06-07T12:26:00,mcc,60.99
2022-06-07T12:27:00,mcc,62.06
2022-06-07T12:28:00,mcc,62.43
2022-06-07T12:29:00,mcc,72.02
2022-06-07T12:30:00,mcc,71.02
2022-06-07T12:31:00,mcc,71.21
2022-06-07T12:32:00,mcc,71.52
2022-06-07T12:33:00,mcc,66.13
2022-06-07T12:34:00,mcc,60.40
2022-06-07T12:35:00,mcc,59.82
2022-06-07T12:36:00,mcc,61.24
2022-06-07T12:37:00,mcc,70.79
2022-06-07T12:38:00,mcc,60.92
2022-06-07T12:39:00,mcc,61.13
2022-06-07T12:40:00,mcc,59.93
2022-06-07T12:41:00,mcc,59.42
2022-06-07T12:42:00,mcc,60.61
2022-06-07T12:43:00,mcc,59.32
2022-06-07T12:44:00,mcc,60.93
2022-06-07T12:45:00,mcc,61.03
2022-06-07T12:46:00,mcc,62.39
2022-06-07T12:47:00,mcc,63.70
2022-06-07T12:48:00,mcc,64.31
2022-06-07T12:49:00,mcc,63.06
2022-06-07T12:50:00,mcc,63.80
2022-06-07T12:51:00,mcc,64.00
2022-06-07T12:52:00,mcc,63.43
2022-06-07T12:53:00,mcc,63.51
2022-06-07T12:54:00,mcc,63.09
2022-06-07T12:55:00,mcc,73.36
2022-06-07T12:56:00,mcc,59.54
2022-06-07T12:57:00,mcc,57.93
2022-06-07T12:58:00,mcc,59.48
2022-06-07T12:59:00,mcc,61.21
2022-06-07T13:00:00,mcc,62.50
2022-06-07T13:01:00,mcc,62.16
2022-06-07T13:02:00,mcc,63.24
2022-06-07T13:03:00,mcc,65.24
2022-06-07T13:04:00,mcc,64.68
2022-06-07T13:05:00,mcc,64.36
2022-06-07T13:06:00,mcc,64.47
2022-06-07T13:07:00,mcc,79.34
2022-06-07T13:08:00,mcc,63.23
2022-06-07T13:09:00,mcc,62.72
2022-06-07T13:10:00,mcc,59.47
2022-06-07T13:11:00,mcc,62.29
2022-06-07T13:12:00,mcc,61.97
2022-06-07T13:13:00,mcc,79.24
2022-06-07T13:14:00,mcc,77.25
2022-06-07T13:15:00,mcc,61.18
2022-06-07T13:16:00,mcc,60.93
2022-06-07T13:17:00,mcc,74.14
2022-06-07T13:18:00,mcc,60.12